Wetbulb
57.27 56.27 54.89 53.43 52.63 52.27 52.00 51.29 49.92 49.46 49.40 49.36 48.62 48.09 47.60 47.11 46.64 46.32 46.12 45.98 45.91 45.81 45.73 45.86 45.73 45.41 44.95 44.20 44.07 43.62 42.96 41.94 41.61 41.17 40.99 41.31 41.31 40.99 40.74 40.80 41.20 41.07 40.65 40.38 39.79 39.40 39.04 38.69 38.85 39.17 39.13 38.33 37.94 37.59 37.45 37.45 36.90 36.66 36.55 36.71 36.46 36.00 35.57 35.31 35.03 34.74 34.33 34.03 33.94
57.42 56.23 54.57 52.22 51.62 51.85 52.00 51.10 50.14 49.61 49.49 49.65 49.11 48.48 47.96 47.61 47.02 46.60 46.37 46.23 46.29 46.19 46.12 45.98 45.65 45.22 44.76 44.23 44.26 43.98 43.38 42.36 41.95 41.61 41.47 41.57 41.54 41.31 41.15 41.29 41.57 41.62 41.39 40.90 40.34 40.03 39.72 38.86 38.94 39.21 39.21 38.78 38.11 37.64 37.34 37.15 36.85 36.65 36.59 36.63 36.58 36.37 36.06 35.62 35.04 34.67 34.40 34.20 34.09
57.84 56.86 55.47 53.94 53.25 52.85 52.36 51.65 50.84 50.15 49.76 49.72 49.32 48.81 48.28 47.87 47.41 47.02 46.80 46.68 46.45 46.33 46.12 45.90 45.72 45.08 44.49 44.28 44.67 44.49 43.84 43.01 42.55 42.28 42.14 42.22 41.76 41.44 41.47 41.68 41.80 41.72 41.43 41.18 40.93 40.56 39.99 38.90 38.90 38.94 39.05 39.02 38.03 37.69 37.47 37.02 36.77 36.62 36.54 36.32 36.84 37.08 37.10 37.00 35.48 34.80 34.73 34.80 34.55
58.31 57.34 56.09 54.54 53.51 52.85 52.54 52.28 51.24 50.52 50.06 50.17 49.56 48.90 48.41 48.02 47.64 47.25 46.86 46.24 45.97 45.87 45.92 45.97 45.98 45.46 44.83 44.67 44.63 44.45 43.94 42.80 42.56 42.49 42.46 42.50 41.85 41.47 41.48 41.60 41.82 41.81 41.56 41.19 40.84 40.13 39.40 38.82 39.21 39.21 38.86 37.99 37.31 37.29 37.47 37.56 37.00 36.92 36.95 36.48 36.81 37.07 37.21 37.33 36.34 36.13 36.12 35.65 35.10
58.46 57.86 56.75 55.15 53.83 53.20 53.05 52.67 51.57 50.93 50.66 50.60 50.00 49.38 48.69 48.23 47.78 47.24 46.68 46.30 46.32 46.33 46.15 45.83 46.11 45.80 45.32 44.71 44.39 44.12 43.62 42.35 41.82 42.18 42.68 42.38 41.73 41.42 41.38 41.57 41.93 41.85 41.65 41.31 40.81 40.21 39.60 38.97 39.60 39.25 38.58 37.78 37.92 37.58 37.08 36.69 36.91 37.07 37.26 37.31 37.09 37.10 37.26 37.34 37.19 37.09 36.91 36.48 36.01
58.78 58.31 57.19 55.74 54.29 53.52 53.34 52.89 51.80 51.20 51.04 50.96 50.11 49.33 48.87 48.55 48.00 47.45 47.04 46.73 46.53 46.11 45.47 44.83 45.14 45.03 44.71 44.33 44.25 44.07 43.42 42.46 42.04 42.26 42.46 42.10 41.59 41.24 41.11 41.36 41.68 41.85 41.76 41.24 40.65 39.99 39.56 39.25 39.55 39.09 38.62 38.54 38.17 37.50 36.85 36.36 36.61 36.80 36.93 37.06 37.05 37.04 37.08 37.04 37.61 37.70 37.52 37.14 36.93
59.26 58.68 57.62 56.16 54.69 54.01 53.49 52.86 52.04 51.52 51.18 50.88 49.82 49.10 48.62 48.50 48.11 47.46 47.00 46.97 46.64 45.94 45.34 45.00 44.81 44.81 44.82 44.54 44.39 44.07 43.46 42.60 42.00 41.93 42.10 42.38 41.61 41.31 41.23 41.51 41.73 41.55 41.29 41.13 40.64 40.02 39.48 39.01 39.36 39.02 38.55 38.46 38.67 37.82 36.95 36.34 36.56 36.70 36.68 36.59 37.04 37.15 37.15 37.06 37.67 37.96 37.90 37.71 37.55
59.53 59.13 58.06 56.54 55.18 54.35 53.64 52.87 52.25 51.55 51.07 50.95 50.01 49.23 48.54 48.31 47.78 47.33 46.97 46.85 46.56 46.26 46.06 46.05 45.49 45.20 45.22 45.15 44.97 44.49 43.83 43.01 42.55 42.35 42.43 42.58 41.77 41.46 41.47 41.67 41.70 41.49 41.15 41.06 40.71 40.02 39.44 38.98 39.13 38.63 38.04 38.31 38.79 38.24 37.26 36.53 36.58 36.51 36.36 36.23 36.96 37.27 37.42 37.60 37.59 37.77 38.00 38.05 38.01
59.49 59.30 58.57 57.11 55.79 54.89 54.05 53.25 52.40 51.69 51.15 50.73 50.13 49.38 48.55 48.06 47.56 47.24 46.90 46.92 46.60 46.60 46.68 46.68 45.92 45.54 45.44 45.64 45.51 45.12 44.61 43.88 43.23 42.94 42.90 42.90 42.52 42.00 41.73 41.88 41.80 41.48 41.25 41.08 40.61 40.08 39.51 39.21 38.94 38.51 38.31 38.78 38.82 38.29 37.52 36.67 36.78 36.54 36.25 36.60 36.99 37.30 37.50 37.75 38.00 38.27 38.51 38.51 38.51
59.28 59.37 58.91 57.70 56.20 55.18 54.38 53.65 52.69 51.77 51.00 50.48 49.73 48.92 48.00 46.77 46.79 47.04 47.33 47.38 47.00 46.84 46.90 46.95 46.25 45.90 45.80 45.87 45.93 45.67 45.18 44.59 43.98 43.45 43.09 42.91 42.61 42.38 42.30 42.41 42.08 41.80 41.49 41.13 41.08 40.57 39.93 39.59 38.44 37.90 37.74 37.84 37.81 37.56 37.23 36.92 37.07 36.75 36.72 37.58 37.40 37.45 37.72 38.09 38.74 38.98 39.02 38.75 38.90
59.00 59.26 59.14 58.29 56.63 55.40 54.61 54.01 53.02 52.01 51.19 50.78 49.77 48.95 48.00 46.79 46.91 47.09 47.31 47.49 47.08 46.84 46.77 47.02 46.46 46.18 46.12 46.17 46.12 45.80 45.46 45.03 44.62 44.15 43.70 43.26 42.84 42.70 42.72 42.78 42.47 42.16 41.85 41.53 41.86 41.75 41.30 40.43 38.94 37.98 37.56 37.45 37.51 37.64 37.61 37.35 37.27 37.08 37.05 37.31 37.30 37.55 37.98 38.59 38.98 39.13 39.20 38.98 38.98
58.96 59.30 59.34 58.88 57.32 56.00 55.11 54.38 53.63 52.68 51.63 51.00 50.14 49.44 48.71 48.17 47.70 47.32 47.06 46.89 46.66 46.67 46.77 46.91 46.61 46.45 46.48 46.54 46.18 45.86 45.56 45.45 45.01 44.46 44.00 43.56 43.18 42.89 42.82 42.77 42.59 42.27 42.05 41.69 42.25 42.52 42.21 41.06 39.71 38.44 37.57 37.20 37.71 37.99 37.83 37.35 37.42 37.27 37.18 37.33 37.20 37.76 38.36 38.67 38.86 39.06 39.25 39.33 39.17
58.99 59.25 59.36 59.16 57.69 56.47 55.64 54.88 54.37 53.44 52.29 51.41 50.68 50.07 49.42 48.73 47.94 47.43 47.03 46.59 46.57 46.83 47.02 46.82 46.59 46.59 46.64 46.84 46.77 46.44 46.04 45.59 45.09 44.75 44.32 43.83 43.44 43.10 42.89 42.87 42.72 42.50 42.14 41.92 42.53 42.64 42.36 41.26 39.79 38.73 38.10 37.80 37.99 37.79 37.49 37.50 37.72 37.72 37.53 37.42 37.55 38.06 38.56 38.52 38.82 39.16 39.46 39.59 39.39
59.08 59.20 59.23 59.23 57.94 56.93 56.04 55.36 54.91 54.15 53.07 51.85 51.22 50.64 49.94 49.11 48.08 47.48 47.22 46.95 46.92 46.99 47.03 46.59 46.46 46.54 46.81 47.44 48.09 47.51 46.44 45.72 45.39 45.08 44.76 44.17 43.83 43.39 43.01 42.96 42.89 42.58 42.27 41.87 42.24 42.31 42.08 41.31 40.05 39.15 38.49 38.02 37.68 37.23 37.06 37.71 38.14 38.32 38.21 37.93 38.20 38.47 38.66 38.68 39.13 39.46 39.72 39.67 39.62
59.14 59.13 59.18 59.17 58.14 57.35 56.52 55.74 55.44 54.68 53.60 52.40 51.79 51.07 50.32 49.46 48.35 47.56 47.22 47.16 46.91 46.95 46.96 46.73 46.48 46.11 46.51 48.30 48.50 48.05 47.04 45.96 45.59 45.30 44.95 44.36 44.09 43.60 43.24 42.98 42.89 42.63 42.29 41.85 41.98 42.02 41.86 41.23 40.27 39.46 38.88 38.41 38.10 37.71 37.58 38.09 38.56 38.71 38.82 38.85 39.00 39.06 39.05 39.23 39.70 40.03 40.25 40.25 40.35
59.13 59.06 59.11 59.12 58.37 57.63 56.92 56.21 56.01 55.22 54.13 53.02 52.19 51.34 50.53 49.82 48.82 47.81 47.03 46.89 47.06 47.15 47.04 46.68 46.40 46.08 46.58 48.22 48.73 48.27 47.26 46.04 45.51 45.34 45.02 44.63 44.38 43.92 43.41 43.14 42.91 42.65 42.32 41.76 41.56 41.68 41.80 41.30 40.50 39.78 39.19 38.76 38.56 38.40 38.44 38.75 39.09 39.25 39.44 39.63 39.62 39.56 39.66 39.94 40.38 40.75 40.96 40.96 40.90
59.21 59.13 59.05 58.93 58.37 57.74 57.09 56.55 56.32 55.74 54.65 53.47 52.28 51.36 50.64 49.87 49.18 47.91 46.89 46.63 47.22 47.18 46.95 46.68 46.61 46.51 46.74 47.63 48.48 48.38 47.60 46.19 45.41 45.08 44.89 44.70 44.53 44.11 43.67 43.31 43.10 42.84 42.39 41.89 41.50 41.48 41.53 41.15 40.61 40.00 39.50 39.04 39.11 39.17 39.27 39.43 39.68 39.76 39.87 40.02 40.08 40.18 40.43 40.48 40.99 41.29 41.51 41.40 41.25
59.35 59.07 58.99 58.95 58.40 57.81 57.12 56.57 56.31 55.57 54.63 53.46 52.37 51.55 50.70 50.00 49.43 48.55 47.57 47.27 47.66 47.62 47.13 46.77 46.83 46.99 47.24 47.80 48.35 48.18 47.42 46.14 45.32 45.03 44.89 44.89 44.59 44.39 43.97 43.61 43.36 43.05 42.60 42.08 41.59 41.40 41.30 41.06 40.73 40.28 39.81 39.53 39.52 39.76 39.89 40.03 39.91 39.99 40.02 40.17 40.54 40.79 41.08 41.19 41.58 41.85 41.91 41.77 41.46
59.36 59.21 59.06 58.81 58.50 57.83 57.10 56.23 55.98 55.33 54.58 53.59 52.67 51.75 50.96 50.15 49.96 49.59 49.15 48.83 48.79 48.36 47.74 47.04 46.96 47.13 47.44 47.46 47.93 47.48 46.68 45.69 45.33 45.11 45.04 45.06 44.83 44.47 44.19 43.75 43.54 43.26 42.83 42.34 41.87 41.57 41.28 41.00 40.95 40.59 40.25 39.89 39.82 39.95 40.19 40.27 40.19 40.06 40.13 40.47 40.84 41.20 41.50 41.71 42.03 42.14 42.17 42.03 41.82
59.60 59.30 59.07 58.91 58.62 57.95 57.20 56.25 55.90 55.41 54.69 54.03 52.89 51.89 51.09 50.49 50.66 50.50 50.26 50.17 49.97 49.50 48.59 47.28 47.12 47.23 47.39 47.35 47.28 46.99 46.42 45.34 45.31 45.14 45.16 45.12 44.90 44.53 44.17 43.96 43.70 43.42 43.07 42.52 42.06 41.68 41.35 41.12 41.20 41.07 40.69 40.03 39.95 40.11 40.38 40.46 40.14 40.09 40.22 40.83 41.16 41.41 41.67 41.91 42.06 42.18 42.18 42.13 42.01
59.69 59.53 59.31 59.15 58.73 58.08 57.35 56.58 56.06 55.40 54.72 54.12 53.02 52.20 51.46 50.94 51.03 51.03 50.96 50.79 51.28 50.77 49.45 47.33 47.19 47.32 47.27 46.92 46.72 46.54 46.01 45.05 45.17 45.09 45.07 45.23 44.95 44.72 44.51 44.25 43.97 43.62 43.27 42.92 42.28 41.89 41.64 41.50 41.49 41.32 41.02 40.19 40.14 40.30 40.42 40.26 40.01 40.09 40.39 40.95 41.22 41.49 41.78 42.02 42.10 42.06 42.10 41.97 41.98
59.95 59.87 59.64 59.32 58.92 58.27 57.48 56.80 56.18 55.36 54.59 54.03 53.26 52.61 52.07 51.64 51.09 51.02 51.23 51.25 52.15 52.08 50.80 47.98 47.26 47.47 47.58 47.20 46.50 46.03 45.73 45.03 45.12 45.17 45.21 45.34 45.06 44.91 44.75 44.53 44.26 43.91 43.56 43.11 42.54 42.08 41.82 41.66 41.60 41.46 41.07 40.35 40.38 40.42 40.38 40.17 40.23 40.40 40.66 40.86 41.11 41.32 41.66 41.84 41.97 42.06 42.07 42.03 42.08
60.26 60.17 59.94 59.57 58.94 57.82 56.71 56.44 56.14 55.38 54.51 53.83 53.26 52.83 52.44 52.02 51.10 50.65 50.85 51.21 51.91 52.35 51.82 49.56 48.11 48.22 48.62 48.33 47.08 46.31 45.94 45.54 45.34 45.33 45.30 45.44 45.26 45.04 44.78 44.56 44.25 44.00 43.67 43.51 42.84 42.24 41.84 41.63 41.43 41.26 41.02 40.34 40.43 40.43 40.30 40.18 40.41 40.61 40.72 40.77 40.86 41.21 41.40 41.58 41.89 41.99 42.09 42.31 42.52
60.67 60.38 60.13 59.91 59.12 58.10 57.17 56.65 55.95 55.32 54.49 53.84 53.31 52.93 52.55 52.07 51.08 50.55 50.43 50.84 51.51 51.97 51.89 50.72 48.89 48.27 48.43 48.59 47.52 46.65 46.12 46.09 45.69 45.54 45.44 45.44 45.28 45.02 44.70 44.56 44.26 43.93 43.63 43.29 42.60 41.95 41.54 41.23 41.23 41.14 40.91 40.54 40.42 40.48 40.52 40.55 40.71 40.74 40.71 40.62 40.80 40.97 41.21 41.46 41.65 41.96 42.18 42.48 42.96
60.64 60.13 59.63 59.83 59.15 58.38 57.45 56.70 55.98 55.25 54.55 53.96 53.43 52.93 52.49 52.03 51.12 50.51 50.25 50.38 50.96 51.31 51.36 50.99 49.23 48.03 47.47 47.89 47.29 46.69 46.37 46.38 46.22 45.89 45.64 45.31 45.11 44.96 44.69 44.44 44.15 43.85 43.32 42.35 41.35 40.74 40.28 39.92 40.77 41.13 41.07 40.98 40.81 40.76 40.84 40.69 40.76 40.73 40.72 40.65 40.67 40.80 40.94 41.13 41.46 41.91 42.26 42.61 43.10
59.99 59.55 59.20 59.34 59.06 58.34 57.57 56.73 56.01 55.36 54.72 54.13 53.31 52.76 52.34 51.96 51.08 50.42 50.00 49.86 50.29 50.61 50.69 50.66 49.08 47.22 46.16 46.84 46.71 46.49 46.24 46.39 46.29 46.09 45.65 45.25 44.80 44.46 44.26 44.24 43.96 43.50 42.68 41.78 40.20 39.48 39.48 39.72 39.80 39.95 40.62 41.69 41.18 40.81 40.72 40.74 40.66 40.66 40.69 40.55 40.56 40.60 40.68 40.81 41.22 41.71 42.16 42.70 43.10
59.25 59.15 59.28 59.34 59.07 58.47 57.75 56.85 56.21 55.62 54.91 54.22 53.14 52.51 52.12 51.91 51.19 50.29 49.51 49.40 49.65 49.94 50.12 50.12 48.76 46.38 44.96 46.00 45.79 45.61 45.43 45.44 45.40 45.43 45.35 45.16 44.68 44.21 43.83 43.68 43.46 42.86 41.92 40.80 39.33 38.82 39.03 39.57 39.53 39.69 40.19 41.47 41.30 41.06 40.88 40.69 40.63 40.64 40.59 40.54 40.65 40.73 40.72 40.72 41.04 41.43 41.83 42.32 42.82
59.29 59.28 59.36 59.33 58.99 58.57 57.85 56.95 56.22 55.49 54.86 54.19 53.17 52.42 52.00 51.68 50.79 49.84 49.17 48.97 49.02 49.21 49.21 49.28 47.74 46.60 45.85 45.78 45.29 44.85 44.66 44.39 44.65 44.69 44.74 44.57 44.10 43.47 42.89 42.51 42.47 42.03 41.16 39.89 38.91 38.75 39.17 39.57 39.70 39.75 39.81 39.76 41.03 41.18 40.83 40.70 40.60 40.63 40.63 40.72 40.80 40.89 40.97 41.10 41.24 41.41 41.62 41.85 42.26
59.01 59.28 59.30 59.00 58.66 58.16 57.65 56.74 56.02 55.49 54.92 54.16 53.28 52.49 51.78 51.49 50.64 49.63 48.79 48.28 48.19 48.19 48.15 47.85 47.07 46.69 46.44 45.78 45.22 44.73 44.51 44.21 44.36 44.30 44.03 43.33 42.43 41.82 41.35 41.13 41.28 40.66 39.71 38.84 38.75 39.01 39.38 39.73 39.60 39.68 39.72 39.80 40.70 40.98 41.02 40.82 40.63 40.66 40.74 40.97 41.06 41.04 41.16 41.16 41.25 41.34 41.38 41.47 41.74
58.93 59.05 58.88 58.35 58.02 57.71 57.36 56.56 55.84 55.31 54.99 54.38 53.35 52.49 51.83 51.35 50.43 49.43 48.56 47.79 47.59 47.53 47.46 47.32 46.98 46.76 46.43 45.93 45.48 45.10 44.81 44.44 44.43 44.10 43.61 42.92 42.61 42.20 41.77 41.64 41.24 39.97 38.76 38.15 38.73 39.20 39.48 39.75 39.52 39.44 39.36 39.40 39.72 40.46 40.99 40.81 40.75 40.73 40.78 40.83 41.00 40.90 40.98 41.02 41.02 41.02 41.07 41.33 41.42
58.75 58.48 58.12 57.62 57.53 57.50 57.40 57.22 56.55 55.83 55.08 54.50 53.44 52.63 51.81 51.03 50.18 49.28 48.53 47.86 47.14 46.61 46.38 46.80 46.84 46.81 46.62 46.24 45.62 45.11 44.77 44.50 44.21 43.95 43.69 43.30 42.16 41.73 41.55 41.22 40.31 39.16 38.31 38.26 38.82 39.29 39.57 39.69 39.49 39.24 39.03 38.93 39.15 40.05 40.85 40.58 40.64 40.63 40.62 40.75 40.71 40.80 40.80 40.89 40.89 40.98 41.11 41.29 41.38
58.46 58.01 57.60 57.32 57.37 57.55 57.74 58.00 57.63 56.70 55.51 54.32 53.44 52.63 51.72 50.91 50.08 49.45 48.69 47.84 46.84 46.06 45.85 46.33 46.66 46.57 46.09 45.63 44.87 44.23 44.00 43.97 43.68 43.31 42.98 42.74 41.87 41.36 41.12 40.86 39.94 38.80 38.12 38.43 38.85 39.12 39.37 39.43 39.14 38.85 38.59 38.31 38.73 39.85 40.67 40.43 40.46 40.53 40.53 40.58 40.68 40.68 40.85 40.98 41.07 41.16 41.20 41.42 41.60
58.30 57.85 57.46 57.42 57.26 56.88 56.20 55.80 56.30 56.34 55.59 54.33 53.34 52.46 51.45 50.59 49.86 49.31 48.64 47.57 46.88 46.52 46.34 46.39 46.33 46.19 45.80 45.19 44.49 44.08 43.88 43.68 43.02 42.29 41.70 41.71 41.70 41.72 41.46 40.92 40.36 39.27 38.28 38.50 38.73 38.87 38.88 38.94 38.60 38.43 38.17 37.76 38.90 39.90 40.50 40.19 40.40 40.39 40.44 40.53 40.76 40.90 40.99 41.12 41.33 41.51 41.52 41.84 42.06
58.20 57.66 56.84 55.86 54.44 53.38 52.89 52.90 53.86 54.53 54.60 53.73 52.41 51.45 50.65 49.74 49.00 48.21 47.42 46.79 46.63 46.50 46.51 46.53 46.23 45.95 45.50 44.99 44.31 43.56 42.94 42.53 42.29 41.83 41.66 41.69 41.97 41.86 41.60 41.25 40.82 39.68 38.48 38.28 38.51 38.56 38.57 38.53 38.32 38.10 37.92 37.61 39.10 39.98 40.37 40.08 40.26 40.39 40.39 40.53 40.75 40.98 41.16 41.34 41.52 41.75 41.93 42.16 42.26
57.06 55.80 54.02 52.01 50.81 50.51 50.94 51.62 52.09 52.24 52.11 51.32 50.39 49.52 48.94 48.35 47.81 47.20 46.49 45.78 45.93 46.26 46.47 46.14 45.85 45.44 44.84 44.26 43.63 42.82 41.96 41.32 41.26 41.03 40.88 40.88 41.08 41.04 40.86 40.79 40.46 39.30 38.37 38.26 38.44 38.62 38.58 38.49 38.27 38.05 37.78 37.68 39.19 40.08 40.39 40.21 40.25 40.25 40.39 40.44 40.66 40.94 41.09 41.35 41.67 41.81 41.96 42.05 42.06
54.74 53.09 51.28 49.74 49.52 49.70 50.05 50.18 49.89 49.57 49.12 48.57 48.11 47.67 47.31 47.14 46.88 46.47 45.92 45.28 45.79 46.06 46.01 45.41 44.98 44.26 43.57 43.05 42.74 41.95 41.38 41.26 40.88 40.57 40.41 40.20 40.29 40.34 40.46 40.62 40.25 39.07 38.13 38.29 38.56 38.70 38.70 38.65 38.25 38.07 38.11 38.82 39.93 40.51 40.60 40.60 40.55 40.47 40.48 40.44 40.49 40.64 40.92 41.15 41.34 41.58 41.68 41.65 41.57
52.72 51.46 50.17 49.27 49.23 49.10 49.12 48.90 48.16 47.36 46.78 46.50 46.53 46.37 46.19 46.09 45.93 45.80 45.59 45.27 45.85 45.53 44.89 44.42 43.77 43.17 42.65 42.37 42.03 41.62 41.36 41.56 41.18 40.73 40.34 39.92 39.92 39.94 40.05 40.15 40.28 39.00 37.83 38.14 38.51 38.65 38.74 38.74 38.42 38.28 38.59 39.70 40.37 40.59 40.59 40.64 40.59 40.60 40.48 40.35 40.37 40.47 40.67 40.78 40.92 40.93 40.82 40.71 40.30
51.53 50.68 49.80 49.02 48.52 48.12 47.84 47.53 46.88 46.15 45.63 45.40 45.47 45.52 45.55 45.54 45.41 45.13 44.64 44.40 45.03 44.71 43.87 43.47 43.02 42.70 42.49 42.24 42.09 41.80 41.55 41.53 41.01 40.62 40.32 39.98 40.03 40.03 39.93 39.86 40.39 39.41 38.18 38.03 38.41 38.64 38.82 38.91 38.59 38.49 38.84 39.77 40.28 40.50 40.50 40.41 40.41 40.37 40.44 40.37 40.34 40.21 40.17 40.32 40.26 40.22 39.93 39.53 38.85
50.78 50.16 49.47 48.82 48.19 47.71 47.30 46.93 46.08 45.39 44.92 44.76 44.85 44.81 44.77 44.73 44.37 44.17 43.97 43.76 44.36 44.16 43.56 43.03 42.61 42.40 42.18 41.61 41.77 41.52 41.17 40.96 40.59 40.34 40.05 40.03 39.99 39.86 39.72 39.70 40.26 39.56 38.37 37.79 38.21 38.49 38.76 39.03 38.75 38.61 38.69 39.22 40.05 40.41 40.32 40.32 40.05 39.92 39.85 39.95 39.93 39.62 39.40 39.47 39.54 39.52 39.28 38.82 38.71
50.31 49.90 49.50 49.01 48.43 47.92 47.27 46.62 45.69 45.08 44.88 44.59 44.48 44.28 44.09 43.65 43.36 43.32 43.40 43.28 43.40 43.36 43.15 42.78 42.35 42.16 41.81 41.10 41.30 41.09 40.78 40.44 40.52 40.26 40.06 39.87 39.86 39.77 39.50 39.56 39.58 38.70 37.61 37.43 38.11 38.52 38.79 39.06 38.87 38.60 38.64 39.08 39.96 40.32 40.23 40.05 39.68 39.37 39.20 39.17 39.19 39.20 39.05 39.08 39.25 39.29 39.10 38.89 38.95
50.36 49.98 49.47 49.11 48.67 47.98 47.22 46.33 45.62 45.22 44.97 44.72 44.45 44.05 43.61 43.15 43.20 43.28 43.32 43.28 42.81 42.81 42.94 42.94 42.50 42.06 41.57 40.94 41.21 41.19 40.78 40.02 39.93 39.93 39.80 39.30 39.46 39.54 39.39 39.01 38.13 37.03 36.44 37.12 37.98 38.43 38.70 38.92 38.96 38.78 38.69 38.77 39.23 39.50 39.50 39.50 39.14 38.69 38.43 38.40 38.61 38.78 38.85 38.84 39.06 39.14 39.15 39.07 39.34
MSLP
1013.72 1013.92 1014.16 1014.40 1014.64 1014.88 1015.08 1015.28 1015.48 1015.64 1015.84 1016.04 1016.20 1016.40 1016.64 1016.88 1017.08 1017.32 1017.52 1017.64 1017.80 1017.92 1018.04 1018.12 1018.24 1018.36 1018.56 1018.72 1018.84 1018.96 1019.08 1019.24 1019.44 1019.60 1019.76 1019.96 1020.08 1020.24 1020.36 1020.52 1020.68 1020.84 1021.00 1021.16 1021.32 1021.48 1021.64 1021.80 1021.96 1022.12 1022.28 1022.36 1022.48 1022.56 1022.60 1022.60 1022.68 1022.72 1022.80 1022.84 1022.92 1022.96 1022.96 1023.04 1023.08 1023.24 1023.40 1023.60 1023.80
1013.52 1013.68 1013.96 1014.20 1014.40 1014.68 1014.92 1015.12 1015.32 1015.52 1015.64 1015.80 1015.92 1016.08 1016.32 1016.52 1016.76 1016.96 1017.16 1017.32 1017.44 1017.56 1017.72 1017.88 1018.04 1018.20 1018.36 1018.52 1018.64 1018.76 1018.96 1019.12 1019.28 1019.44 1019.64 1019.80 1019.96 1020.08 1020.24 1020.36 1020.52 1020.68 1020.80 1021.00 1021.20 1021.36 1021.56 1021.72 1021.92 1022.08 1022.28 1022.44 1022.52 1022.64 1022.68 1022.68 1022.76 1022.88 1022.96 1023.08 1023.08 1023.12 1023.16 1023.16 1023.20 1023.20 1023.24 1023.40 1023.60
1013.24 1013.44 1013.64 1013.96 1014.20 1014.44 1014.68 1014.92 1015.12 1015.28 1015.44 1015.60 1015.72 1015.88 1016.04 1016.24 1016.44 1016.64 1016.80 1016.96 1017.12 1017.32 1017.52 1017.64 1017.80 1017.96 1018.16 1018.32 1018.48 1018.60 1018.76 1018.92 1019.08 1019.32 1019.52 1019.68 1019.84 1019.96 1020.12 1020.28 1020.40 1020.56 1020.72 1020.88 1021.04 1021.24 1021.40 1021.60 1021.80 1022.00 1022.20 1022.36 1022.56 1022.68 1022.76 1022.76 1022.84 1022.96 1023.08 1023.20 1023.28 1023.36 1023.36 1023.44 1023.48 1023.40 1023.36 1023.36 1023.52
1013.00 1013.24 1013.44 1013.64 1013.92 1014.12 1014.32 1014.52 1014.72 1014.96 1015.12 1015.28 1015.48 1015.64 1015.84 1016.00 1016.20 1016.36 1016.56 1016.80 1017.00 1017.20 1017.32 1017.40 1017.56 1017.80 1017.96 1018.12 1018.32 1018.48 1018.64 1018.80 1018.96 1019.16 1019.36 1019.60 1019.80 1019.96 1020.08 1020.28 1020.40 1020.52 1020.68 1020.80 1020.96 1021.12 1021.32 1021.52 1021.68 1021.88 1022.08 1022.32 1022.52 1022.68 1022.72 1022.80 1022.92 1023.04 1023.16 1023.28 1023.36 1023.44 1023.52 1023.56 1023.64 1023.60 1023.52 1023.52 1023.52
1012.80 1012.96 1013.12 1013.36 1013.56 1013.72 1013.88 1014.08 1014.32 1014.56 1014.80 1014.96 1015.20 1015.44 1015.64 1015.80 1015.96 1016.20 1016.40 1016.68 1016.80 1016.96 1017.04 1017.16 1017.36 1017.56 1017.80 1018.00 1018.24 1018.40 1018.60 1018.80 1018.96 1019.12 1019.36 1019.60 1019.80 1019.96 1020.12 1020.32 1020.44 1020.56 1020.68 1020.84 1020.96 1021.08 1021.24 1021.44 1021.64 1021.80 1022.00 1022.20 1022.36 1022.52 1022.68 1022.76 1022.88 1023.00 1023.12 1023.24 1023.32 1023.40 1023.52 1023.64 1023.64 1023.64 1023.64 1023.64 1023.60
1012.52 1012.68 1012.80 1013.04 1013.24 1013.44 1013.60 1013.80 1014.00 1014.24 1014.48 1014.68 1014.92 1015.12 1015.32 1015.52 1015.64 1015.92 1016.16 1016.32 1016.40 1016.56 1016.80 1017.00 1017.16 1017.36 1017.64 1017.92 1018.08 1018.32 1018.52 1018.80 1018.96 1019.08 1019.32 1019.60 1019.80 1020.04 1020.24 1020.40 1020.52 1020.64 1020.76 1020.92 1021.00 1021.12 1021.24 1021.44 1021.64 1021.80 1021.96 1022.12 1022.24 1022.40 1022.52 1022.68 1022.84 1022.96 1023.08 1023.24 1023.24 1023.28 1023.36 1023.52 1023.52 1023.56 1023.64 1023.72 1023.72
1012.20 1012.36 1012.56 1012.80 1013.04 1013.24 1013.40 1013.56 1013.80 1014.04 1014.24 1014.40 1014.64 1014.80 1014.96 1015.08 1015.28 1015.52 1015.68 1015.84 1016.08 1016.36 1016.60 1016.80 1016.96 1017.16 1017.40 1017.72 1017.96 1018.16 1018.40 1018.64 1018.88 1019.08 1019.28 1019.52 1019.76 1019.96 1020.08 1020.28 1020.48 1020.64 1020.80 1020.96 1021.08 1021.24 1021.36 1021.52 1021.72 1021.92 1022.04 1022.16 1022.28 1022.44 1022.56 1022.68 1022.80 1022.96 1023.08 1023.16 1023.16 1023.20 1023.24 1023.36 1023.40 1023.48 1023.60 1023.68 1023.76
1011.88 1012.08 1012.24 1012.52 1012.80 1012.96 1013.16 1013.36 1013.60 1013.84 1014.08 1014.20 1014.36 1014.48 1014.60 1014.72 1014.92 1015.08 1015.36 1015.60 1015.88 1016.12 1016.36 1016.52 1016.68 1016.88 1017.08 1017.36 1017.64 1017.88 1018.16 1018.44 1018.68 1018.92 1019.08 1019.28 1019.52 1019.68 1019.84 1020.04 1020.24 1020.52 1020.72 1020.92 1021.12 1021.32 1021.48 1021.64 1021.80 1022.00 1022.16 1022.28 1022.40 1022.48 1022.56 1022.68 1022.76 1022.92 1023.04 1023.08 1023.08 1023.08 1023.08 1023.20 1023.28 1023.36 1023.52 1023.60 1023.68
1011.68 1011.84 1012.00 1012.28 1012.52 1012.76 1012.96 1013.16 1013.36 1013.60 1013.80 1013.88 1013.96 1014.12 1014.28 1014.48 1014.68 1014.88 1015.16 1015.40 1015.60 1015.80 1016.04 1016.24 1016.44 1016.64 1016.80 1017.08 1017.32 1017.60 1017.88 1018.12 1018.36 1018.64 1018.84 1019.00 1019.20 1019.36 1019.56 1019.80 1020.00 1020.28 1020.52 1020.80 1021.04 1021.28 1021.52 1021.68 1021.88 1022.04 1022.20 1022.36 1022.48 1022.52 1022.56 1022.68 1022.80 1022.92 1022.96 1023.00 1023.08 1023.08 1023.08 1023.16 1023.24 1023.36 1023.44 1023.52 1023.60
1011.48 1011.60 1011.80 1012.08 1012.32 1012.52 1012.72 1012.96 1013.12 1013.32 1013.48 1013.60 1013.72 1013.92 1014.08 1014.28 1014.44 1014.68 1014.88 1015.08 1015.36 1015.64 1015.84 1016.04 1016.24 1016.52 1016.72 1016.96 1017.16 1017.40 1017.64 1017.92 1018.12 1018.36 1018.56 1018.72 1018.92 1019.08 1019.28 1019.52 1019.76 1019.96 1020.24 1020.52 1020.80 1021.04 1021.28 1021.52 1021.76 1021.96 1022.16 1022.32 1022.48 1022.56 1022.68 1022.72 1022.80 1022.92 1022.96 1023.00 1023.08 1023.12 1023.20 1023.24 1023.24 1023.36 1023.44 1023.52 1023.52
1011.16 1011.32 1011.52 1011.76 1012.00 1012.24 1012.48 1012.72 1012.92 1013.08 1013.24 1013.36 1013.56 1013.72 1013.92 1014.08 1014.28 1014.44 1014.64 1014.88 1015.24 1015.48 1015.64 1015.80 1016.08 1016.36 1016.64 1016.80 1017.08 1017.36 1017.60 1017.80 1018.00 1018.20 1018.36 1018.56 1018.76 1018.92 1019.08 1019.28 1019.52 1019.68 1019.88 1020.08 1020.36 1020.68 1020.92 1021.16 1021.40 1021.64 1021.92 1022.16 1022.36 1022.52 1022.64 1022.72 1022.80 1022.92 1023.00 1023.08 1023.12 1023.16 1023.24 1023.28 1023.36 1023.36 1023.48 1023.52 1023.68
1010.84 1011.04 1011.20 1011.40 1011.64 1011.96 1012.20 1012.44 1012.68 1012.84 1013.00 1013.20 1013.36 1013.52 1013.68 1013.88 1014.08 1014.24 1014.52 1014.80 1015.08 1015.24 1015.40 1015.64 1015.92 1016.20 1016.48 1016.80 1017.08 1017.40 1017.64 1017.80 1017.92 1018.04 1018.24 1018.44 1018.60 1018.76 1018.96 1019.12 1019.32 1019.52 1019.64 1019.88 1020.08 1020.36 1020.52 1020.76 1021.00 1021.24 1021.52 1021.88 1022.16 1022.36 1022.52 1022.68 1022.80 1022.96 1023.04 1023.08 1023.16 1023.24 1023.28 1023.36 1023.40 1023.48 1023.56 1023.68 1023.88
1010.52 1010.72 1010.92 1011.08 1011.36 1011.64 1011.92 1012.12 1012.32 1012.52 1012.76 1012.92 1013.08 1013.24 1013.40 1013.64 1013.84 1014.08 1014.36 1014.64 1014.88 1015.08 1015.36 1015.60 1015.84 1016.12 1016.44 1016.80 1017.20 1017.48 1017.64 1017.76 1017.88 1018.04 1018.24 1018.40 1018.52 1018.68 1018.84 1019.04 1019.24 1019.36 1019.56 1019.80 1019.96 1020.12 1020.32 1020.48 1020.68 1020.84 1021.12 1021.52 1021.92 1022.20 1022.40 1022.56 1022.72 1022.84 1022.96 1023.08 1023.16 1023.24 1023.28 1023.36 1023.44 1023.56 1023.72 1023.88 1024.08
1010.24 1010.36 1010.56 1010.80 1011.08 1011.36 1011.64 1011.84 1012.04 1012.24 1012.44 1012.68 1012.80 1012.96 1013.20 1013.44 1013.76 1014.00 1014.24 1014.52 1014.76 1015.00 1015.28 1015.56 1015.84 1016.12 1016.44 1016.84 1017.24 1017.48 1017.60 1017.80 1017.96 1018.16 1018.32 1018.48 1018.52 1018.68 1018.80 1018.96 1019.16 1019.36 1019.52 1019.68 1019.84 1019.96 1020.12 1020.28 1020.40 1020.52 1020.76 1021.12 1021.60 1021.96 1022.20 1022.36 1022.52 1022.68 1022.84 1023.00 1023.08 1023.16 1023.24 1023.32 1023.52 1023.64 1023.84 1024.04 1024.16
1009.96 1010.08 1010.24 1010.48 1010.76 1011.04 1011.32 1011.52 1011.72 1011.96 1012.16 1012.40 1012.60 1012.80 1013.08 1013.36 1013.68 1013.96 1014.24 1014.48 1014.76 1015.00 1015.24 1015.56 1015.88 1016.12 1016.40 1016.72 1017.08 1017.36 1017.56 1017.80 1018.00 1018.20 1018.32 1018.40 1018.52 1018.68 1018.80 1018.96 1019.12 1019.28 1019.44 1019.64 1019.80 1019.88 1020.00 1020.12 1020.24 1020.32 1020.44 1020.76 1021.24 1021.64 1021.92 1022.12 1022.32 1022.48 1022.64 1022.80 1022.92 1023.04 1023.16 1023.32 1023.52 1023.72 1023.92 1024.08 1024.24
1009.60 1009.80 1009.96 1010.16 1010.44 1010.72 1010.96 1011.24 1011.44 1011.64 1011.92 1012.16 1012.40 1012.68 1013.00 1013.32 1013.64 1014.00 1014.28 1014.52 1014.80 1015.08 1015.28 1015.60 1015.88 1016.16 1016.40 1016.60 1016.80 1017.16 1017.52 1017.80 1017.96 1018.08 1018.20 1018.32 1018.44 1018.64 1018.80 1018.88 1019.04 1019.20 1019.36 1019.52 1019.72 1019.84 1019.92 1019.96 1020.12 1020.24 1020.32 1020.52 1020.92 1021.32 1021.64 1021.88 1022.08 1022.24 1022.40 1022.56 1022.68 1022.88 1023.08 1023.28 1023.52 1023.68 1023.92 1024.08 1024.24
1009.24 1009.44 1009.64 1009.84 1010.12 1010.36 1010.64 1010.92 1011.12 1011.40 1011.68 1011.96 1012.28 1012.60 1012.92 1013.24 1013.64 1014.04 1014.36 1014.56 1014.80 1015.08 1015.36 1015.60 1015.84 1016.12 1016.36 1016.52 1016.68 1016.92 1017.24 1017.60 1017.80 1017.96 1018.04 1018.16 1018.28 1018.44 1018.60 1018.68 1018.84 1019.00 1019.20 1019.36 1019.56 1019.76 1019.88 1019.96 1020.08 1020.16 1020.24 1020.40 1020.72 1021.08 1021.36 1021.64 1021.84 1022.08 1022.24 1022.36 1022.52 1022.72 1022.96 1023.24 1023.36 1023.56 1023.80 1024.00 1024.12
1008.92 1009.08 1009.32 1009.56 1009.80 1010.04 1010.32 1010.60 1010.88 1011.20 1011.52 1011.84 1012.20 1012.52 1012.80 1013.16 1013.60 1014.00 1014.32 1014.52 1014.76 1015.04 1015.32 1015.56 1015.80 1016.04 1016.24 1016.40 1016.52 1016.72 1016.96 1017.24 1017.48 1017.64 1017.76 1017.88 1018.04 1018.20 1018.36 1018.48 1018.68 1018.84 1019.04 1019.24 1019.40 1019.60 1019.80 1019.96 1020.04 1020.08 1020.16 1020.32 1020.56 1020.84 1021.16 1021.44 1021.64 1021.88 1022.04 1022.16 1022.32 1022.56 1022.84 1023.08 1023.20 1023.36 1023.64 1023.80 1023.96
1008.56 1008.80 1009.04 1009.28 1009.52 1009.80 1010.08 1010.40 1010.72 1011.00 1011.32 1011.64 1012.04 1012.36 1012.68 1013.00 1013.36 1013.76 1014.12 1014.40 1014.64 1014.84 1015.08 1015.36 1015.64 1015.84 1016.04 1016.24 1016.44 1016.64 1016.80 1016.96 1017.16 1017.36 1017.52 1017.64 1017.80 1018.00 1018.20 1018.36 1018.52 1018.76 1018.96 1019.12 1019.28 1019.48 1019.68 1019.88 1020.04 1020.08 1020.16 1020.24 1020.44 1020.68 1020.96 1021.24 1021.48 1021.64 1021.80 1021.92 1022.12 1022.40 1022.68 1022.84 1023.00 1023.16 1023.36 1023.60 1023.76
1008.24 1008.52 1008.76 1008.96 1009.24 1009.52 1009.88 1010.24 1010.52 1010.80 1011.12 1011.48 1011.84 1012.16 1012.44 1012.72 1013.04 1013.44 1013.84 1014.12 1014.36 1014.56 1014.76 1015.00 1015.28 1015.60 1015.84 1016.08 1016.36 1016.60 1016.80 1016.92 1017.04 1017.20 1017.36 1017.48 1017.64 1017.80 1018.00 1018.24 1018.48 1018.68 1018.88 1019.04 1019.24 1019.44 1019.60 1019.80 1019.96 1020.08 1020.20 1020.28 1020.40 1020.64 1020.88 1021.08 1021.28 1021.44 1021.56 1021.72 1022.04 1022.32 1022.52 1022.68 1022.84 1023.04 1023.24 1023.44 1023.60
1007.84 1008.12 1008.40 1008.68 1009.00 1009.32 1009.64 1009.96 1010.28 1010.60 1010.92 1011.24 1011.60 1011.92 1012.16 1012.44 1012.76 1013.12 1013.52 1013.80 1014.08 1014.36 1014.56 1014.76 1015.04 1015.36 1015.64 1015.96 1016.24 1016.52 1016.68 1016.84 1016.96 1017.08 1017.20 1017.32 1017.48 1017.64 1017.84 1018.08 1018.36 1018.56 1018.80 1019.00 1019.16 1019.36 1019.52 1019.72 1019.92 1020.08 1020.20 1020.32 1020.48 1020.64 1020.80 1021.00 1021.20 1021.36 1021.52 1021.80 1022.08 1022.36 1022.52 1022.68 1022.80 1022.96 1023.12 1023.32 1023.52
1007.52 1007.84 1008.16 1008.48 1008.80 1009.08 1009.40 1009.76 1010.12 1010.44 1010.76 1011.04 1011.36 1011.64 1011.96 1012.24 1012.52 1012.84 1013.20 1013.56 1013.96 1014.24 1014.48 1014.68 1014.88 1015.12 1015.48 1015.80 1016.08 1016.32 1016.52 1016.80 1016.88 1016.96 1017.08 1017.20 1017.32 1017.52 1017.68 1017.92 1018.16 1018.40 1018.64 1018.84 1019.00 1019.20 1019.40 1019.64 1019.80 1019.96 1020.16 1020.36 1020.48 1020.64 1020.80 1021.00 1021.20 1021.44 1021.68 1021.96 1022.24 1022.52 1022.68 1022.76 1022.80 1022.92 1023.00 1023.16 1023.36
1007.32 1007.64 1008.00 1008.36 1008.64 1008.96 1009.24 1009.60 1009.96 1010.28 1010.60 1010.88 1011.20 1011.48 1011.76 1012.08 1012.36 1012.68 1013.00 1013.36 1013.72 1014.00 1014.24 1014.52 1014.72 1014.96 1015.24 1015.52 1015.80 1016.04 1016.32 1016.60 1016.76 1016.84 1016.96 1017.08 1017.20 1017.36 1017.60 1017.80 1018.00 1018.24 1018.36 1018.52 1018.76 1019.00 1019.24 1019.52 1019.72 1019.92 1020.08 1020.28 1020.44 1020.60 1020.80 1021.00 1021.24 1021.52 1021.88 1022.16 1022.44 1022.64 1022.72 1022.80 1022.80 1022.80 1022.88 1023.04 1023.20
1007.48 1007.80 1008.08 1008.24 1008.48 1008.76 1009.08 1009.40 1009.80 1010.12 1010.44 1010.76 1011.04 1011.36 1011.64 1011.96 1012.24 1012.56 1012.92 1013.24 1013.52 1013.72 1013.96 1014.24 1014.52 1014.76 1014.96 1015.20 1015.52 1015.80 1016.04 1016.32 1016.52 1016.68 1016.80 1016.92 1017.08 1017.24 1017.40 1017.60 1017.80 1017.96 1018.08 1018.28 1018.52 1018.76 1019.04 1019.32 1019.56 1019.80 1020.04 1020.24 1020.40 1020.64 1020.84 1021.04 1021.28 1021.60 1021.92 1022.24 1022.44 1022.56 1022.68 1022.68 1022.72 1022.76 1022.80 1022.92 1023.04
1007.84 1008.08 1008.12 1008.08 1008.24 1008.52 1008.88 1009.24 1009.64 1009.96 1010.24 1010.56 1010.88 1011.16 1011.48 1011.80 1012.08 1012.40 1012.76 1013.08 1013.32 1013.56 1013.80 1014.04 1014.32 1014.56 1014.80 1015.00 1015.28 1015.56 1015.80 1016.08 1016.32 1016.52 1016.68 1016.80 1016.96 1017.08 1017.24 1017.40 1017.60 1017.76 1017.96 1018.16 1018.40 1018.64 1018.84 1019.12 1019.40 1019.64 1019.96 1020.20 1020.40 1020.68 1020.92 1021.08 1021.36 1021.60 1021.88 1022.08 1022.28 1022.40 1022.52 1022.56 1022.64 1022.68 1022.68 1022.76 1022.88
1008.16 1008.32 1008.20 1007.96 1008.04 1008.28 1008.68 1009.08 1009.44 1009.80 1010.08 1010.36 1010.68 1011.00 1011.32 1011.60 1011.88 1012.24 1012.56 1012.92 1013.20 1013.48 1013.68 1013.92 1014.16 1014.44 1014.68 1014.92 1015.16 1015.44 1015.68 1015.88 1016.08 1016.32 1016.52 1016.68 1016.84 1017.00 1017.12 1017.28 1017.44 1017.64 1017.80 1018.08 1018.32 1018.52 1018.76 1019.00 1019.24 1019.52 1019.80 1020.08 1020.40 1020.68 1020.96 1021.20 1021.40 1021.64 1021.80 1021.96 1022.16 1022.28 1022.36 1022.48 1022.52 1022.52 1022.60 1022.68 1022.76
1008.44 1008.56 1008.40 1008.04 1007.96 1008.16 1008.48 1008.84 1009.24 1009.64 1009.96 1010.28 1010.60 1010.88 1011.12 1011.44 1011.76 1012.08 1012.48 1012.80 1013.08 1013.36 1013.60 1013.84 1014.08 1014.36 1014.64 1014.84 1015.08 1015.36 1015.56 1015.80 1016.00 1016.24 1016.44 1016.60 1016.80 1016.96 1017.08 1017.20 1017.32 1017.52 1017.76 1017.96 1018.24 1018.48 1018.68 1018.92 1019.16 1019.36 1019.64 1019.96 1020.28 1020.60 1020.92 1021.24 1021.52 1021.64 1021.76 1021.92 1022.08 1022.16 1022.24 1022.32 1022.36 1022.44 1022.52 1022.60 1022.68
1008.80 1008.68 1008.36 1008.12 1008.24 1008.36 1008.52 1008.80 1009.16 1009.52 1009.84 1010.16 1010.44 1010.72 1011.04 1011.36 1011.68 1012.08 1012.40 1012.76 1013.08 1013.32 1013.56 1013.80 1014.00 1014.24 1014.52 1014.80 1015.04 1015.24 1015.44 1015.68 1015.92 1016.12 1016.36 1016.52 1016.72 1016.88 1017.00 1017.16 1017.28 1017.48 1017.68 1017.92 1018.12 1018.36 1018.56 1018.80 1019.00 1019.24 1019.48 1019.84 1020.16 1020.52 1020.80 1021.12 1021.36 1021.56 1021.72 1021.84 1021.96 1022.08 1022.16 1022.24 1022.28 1022.36 1022.48 1022.52 1022.56
1008.84 1008.68 1008.44 1008.44 1008.68 1008.84 1008.96 1008.96 1009.12 1009.36 1009.68 1010.04 1010.32 1010.68 1010.96 1011.28 1011.64 1011.96 1012.32 1012.68 1012.96 1013.24 1013.52 1013.76 1013.96 1014.20 1014.48 1014.72 1014.92 1015.16 1015.36 1015.64 1015.80 1016.04 1016.24 1016.48 1016.68 1016.88 1017.04 1017.24 1017.36 1017.52 1017.68 1017.88 1018.08 1018.28 1018.48 1018.68 1018.88 1019.08 1019.36 1019.80 1020.16 1020.48 1020.80 1021.08 1021.28 1021.48 1021.64 1021.76 1021.88 1022.00 1022.08 1022.20 1022.24 1022.32 1022.36 1022.48 1022.52
1008.68 1008.68 1008.68 1008.80 1009.04 1009.28 1009.36 1009.28 1009.24 1009.36 1009.64 1009.96 1010.28 1010.64 1010.96 1011.24 1011.60 1011.92 1012.24 1012.56 1012.84 1013.12 1013.36 1013.56 1013.84 1014.12 1014.36 1014.56 1014.80 1015.08 1015.32 1015.52 1015.68 1015.96 1016.20 1016.48 1016.68 1016.92 1017.08 1017.28 1017.48 1017.64 1017.80 1017.92 1018.04 1018.24 1018.44 1018.68 1018.84 1019.08 1019.32 1019.76 1020.12 1020.44 1020.76 1021.00 1021.20 1021.36 1021.52 1021.64 1021.80 1021.92 1022.04 1022.16 1022.20 1022.24 1022.28 1022.36 1022.36
1008.44 1008.60 1008.72 1008.88 1009.08 1009.32 1009.40 1009.36 1009.52 1009.64 1009.76 1009.96 1010.24 1010.60 1010.92 1011.24 1011.52 1011.80 1012.08 1012.36 1012.68 1012.96 1013.20 1013.48 1013.76 1014.00 1014.24 1014.44 1014.68 1014.96 1015.24 1015.48 1015.72 1015.96 1016.20 1016.48 1016.76 1016.96 1017.16 1017.36 1017.52 1017.76 1017.92 1018.00 1018.08 1018.32 1018.52 1018.76 1018.92 1019.08 1019.32 1019.64 1020.00 1020.36 1020.68 1020.92 1021.08 1021.24 1021.40 1021.56 1021.68 1021.80 1021.96 1022.04 1022.08 1022.12 1022.20 1022.24 1022.24
1008.24 1008.36 1008.52 1008.68 1008.80 1008.96 1009.24 1009.52 1009.76 1009.96 1010.04 1010.08 1010.24 1010.52 1010.84 1011.16 1011.40 1011.64 1011.96 1012.24 1012.60 1012.92 1013.24 1013.52 1013.72 1013.96 1014.16 1014.44 1014.72 1014.96 1015.24 1015.52 1015.76 1015.96 1016.20 1016.40 1016.68 1016.96 1017.20 1017.44 1017.68 1017.96 1018.12 1018.20 1018.32 1018.52 1018.72 1018.92 1019.08 1019.20 1019.36 1019.64 1019.96 1020.24 1020.52 1020.80 1021.04 1021.20 1021.36 1021.52 1021.64 1021.72 1021.84 1021.96 1022.00 1022.04 1022.08 1022.08 1022.08
1007.84 1008.00 1008.20 1008.36 1008.52 1008.80 1009.20 1009.52 1009.84 1010.08 1010.20 1010.16 1010.24 1010.48 1010.76 1011.04 1011.32 1011.60 1011.88 1012.20 1012.52 1012.92 1013.20 1013.40 1013.64 1013.96 1014.20 1014.52 1014.76 1015.00 1015.24 1015.52 1015.72 1015.96 1016.16 1016.36 1016.68 1016.96 1017.32 1017.68 1017.92 1018.16 1018.36 1018.44 1018.60 1018.80 1019.00 1019.20 1019.36 1019.52 1019.64 1019.80 1020.08 1020.32 1020.56 1020.84 1021.04 1021.20 1021.36 1021.52 1021.56 1021.64 1021.76 1021.80 1021.84 1021.88 1021.92 1021.92 1021.96
1007.40 1007.60 1007.80 1008.08 1008.44 1008.84 1009.24 1009.56 1009.80 1010.00 1010.12 1010.20 1010.24 1010.36 1010.68 1011.00 1011.32 1011.64 1011.92 1012.24 1012.52 1012.80 1013.08 1013.36 1013.64 1013.92 1014.20 1014.48 1014.76 1015.04 1015.36 1015.60 1015.80 1016.04 1016.28 1016.52 1016.76 1017.08 1017.48 1017.88 1018.16 1018.40 1018.60 1018.68 1018.88 1019.08 1019.24 1019.48 1019.64 1019.84 1020.00 1020.16 1020.36 1020.52 1020.72 1020.96 1021.12 1021.24 1021.36 1021.48 1021.52 1021.56 1021.60 1021.64 1021.68 1021.72 1021.72 1021.76 1021.76
1007.20 1007.36 1007.72 1008.12 1008.52 1008.96 1009.28 1009.56 1009.80 1009.96 1010.12 1010.24 1010.32 1010.52 1010.76 1011.08 1011.36 1011.72 1012.00 1012.24 1012.52 1012.80 1013.12 1013.44 1013.72 1014.00 1014.28 1014.60 1014.84 1015.16 1015.52 1015.80 1016.08 1016.32 1016.52 1016.76 1016.96 1017.28 1017.68 1018.08 1018.40 1018.64 1018.80 1018.96 1019.08 1019.28 1019.48 1019.68 1019.88 1020.08 1020.24 1020.40 1020.56 1020.72 1020.84 1021.00 1021.16 1021.28 1021.36 1021.40 1021.44 1021.48 1021.52 1021.52 1021.52 1021.52 1021.56 1021.56 1021.56
1007.12 1007.40 1007.80 1008.28 1008.68 1009.04 1009.36 1009.60 1009.80 1009.96 1010.12 1010.32 1010.52 1010.76 1011.00 1011.28 1011.60 1011.88 1012.12 1012.36 1012.68 1013.00 1013.36 1013.64 1013.96 1014.24 1014.60 1014.92 1015.20 1015.48 1015.76 1016.04 1016.32 1016.60 1016.80 1017.00 1017.24 1017.52 1017.96 1018.32 1018.64 1018.80 1018.96 1019.08 1019.24 1019.44 1019.60 1019.80 1019.96 1020.16 1020.36 1020.52 1020.64 1020.80 1020.92 1021.04 1021.12 1021.24 1021.24 1021.32 1021.36 1021.32 1021.32 1021.36 1021.36 1021.40 1021.40 1021.40 1021.40
1007.16 1007.52 1007.96 1008.36 1008.80 1009.12 1009.40 1009.64 1009.80 1009.96 1010.16 1010.48 1010.72 1011.04 1011.36 1011.64 1011.92 1012.12 1012.32 1012.52 1012.84 1013.24 1013.60 1013.92 1014.24 1014.52 1014.84 1015.16 1015.48 1015.80 1016.00 1016.24 1016.52 1016.80 1017.08 1017.24 1017.48 1017.76 1018.08 1018.48 1018.76 1018.96 1019.08 1019.16 1019.32 1019.48 1019.64 1019.76 1019.96 1020.08 1020.28 1020.48 1020.64 1020.76 1020.92 1021.00 1021.08 1021.12 1021.16 1021.20 1021.20 1021.16 1021.20 1021.24 1021.24 1021.28 1021.32 1021.32 1021.32
1007.28 1007.64 1008.08 1008.48 1008.80 1009.08 1009.36 1009.60 1009.80 1010.04 1010.36 1010.68 1011.00 1011.36 1011.64 1011.92 1012.20 1012.44 1012.60 1012.80 1013.08 1013.40 1013.80 1014.12 1014.48 1014.80 1015.08 1015.36 1015.68 1016.00 1016.24 1016.44 1016.68 1016.96 1017.24 1017.48 1017.64 1017.88 1018.20 1018.52 1018.80 1018.96 1019.08 1019.16 1019.28 1019.40 1019.56 1019.72 1019.88 1020.04 1020.24 1020.36 1020.52 1020.68 1020.80 1020.92 1020.96 1021.00 1021.04 1021.04 1021.00 1021.00 1021.08 1021.12 1021.16 1021.24 1021.24 1021.24 1021.20
1007.44 1007.80 1008.20 1008.52 1008.84 1009.12 1009.40 1009.72 1010.04 1010.32 1010.60 1010.88 1011.24 1011.60 1011.92 1012.20 1012.48 1012.68 1012.88 1013.04 1013.24 1013.56 1013.96 1014.36 1014.68 1015.00 1015.28 1015.52 1015.84 1016.16 1016.44 1016.64 1016.80 1017.04 1017.32 1017.56 1017.76 1017.96 1018.20 1018.48 1018.68 1018.92 1019.04 1019.16 1019.24 1019.36 1019.52 1019.68 1019.84 1020.00 1020.12 1020.28 1020.44 1020.60 1020.72 1020.80 1020.88 1020.92 1020.92 1020.92 1020.92 1020.96 1020.96 1021.08 1021.08 1021.12 1021.12 1021.08 1021.08
1007.64 1007.96 1008.24 1008.56 1008.92 1009.24 1009.56 1009.96 1010.36 1010.60 1010.84 1011.08 1011.44 1011.80 1012.08 1012.36 1012.68 1012.88 1013.08 1013.28 1013.52 1013.80 1014.12 1014.52 1014.84 1015.16 1015.40 1015.64 1015.96 1016.32 1016.64 1016.80 1016.96 1017.12 1017.36 1017.56 1017.80 1017.96 1018.16 1018.40 1018.68 1018.88 1019.04 1019.16 1019.24 1019.36 1019.52 1019.64 1019.80 1019.96 1020.08 1020.24 1020.36 1020.48 1020.60 1020.72 1020.80 1020.84 1020.84 1020.88 1020.92 1020.92 1020.96 1021.00 1021.04 1021.08 1021.04 1021.00 1020.96
1007.80 1008.08 1008.40 1008.72 1009.04 1009.36 1009.80 1010.24 1010.60 1010.84 1011.08 1011.32 1011.64 1011.96 1012.24 1012.52 1012.80 1013.08 1013.28 1013.52 1013.80 1014.04 1014.32 1014.68 1014.96 1015.24 1015.52 1015.80 1016.08 1016.40 1016.72 1016.96 1017.16 1017.28 1017.44 1017.64 1017.84 1018.04 1018.24 1018.44 1018.68 1018.92 1019.04 1019.16 1019.24 1019.36 1019.52 1019.64 1019.80 1019.92 1020.08 1020.20 1020.32 1020.40 1020.52 1020.68 1020.80 1020.80 1020.80 1020.84 1020.88 1020.92 1020.96 1020.96 1020.96 1020.96 1020.96 1020.88 1020.80
Wind_Speed
12 11 10 10 9 9 9 7 8 8 8 9 9 9 9 9 9 9 8 8 8 8 8 8 8 8 8 10 11 10 10 9 9 9 10 10 10 10 10 9 9 9 8 8 8 7 6 6 5 3 3 2 3 3 2 2 3 3 4 4 4 4 6 7 7 7 7 6 5
13 12 11 10 10 9 8 8 7 8 8 8 8 9 10 10 10 9 9 10 9 8 8 7 8 8 9 11 11 11 11 10 10 10 10 11 11 11 10 9 9 9 9 9 8 7 6 6 5 4 3 2 2 2 2 2 2 3 3 3 3 3 3 4 5 6 7 6 5
13 13 12 12 11 10 9 9 9 10 10 9 8 9 9 9 9 9 9 10 9 9 8 7 8 9 10 11 11 11 11 11 11 11 11 10 11 11 10 9 10 10 10 9 9 8 7 7 6 5 4 3 3 3 3 2 2 2 3 2 2 1 2 2 3 4 5 5 5
14 14 13 13 14 14 12 10 11 12 12 10 10 9 9 8 8 8 8 8 8 8 8 8 9 9 10 10 11 11 10 10 11 11 11 10 10 11 10 9 9 10 9 9 9 8 8 7 6 5 4 4 4 4 3 2 2 2 2 2 1 1 2 2 2 3 3 4 5
15 14 14 14 15 15 14 12 13 13 12 11 10 9 9 8 8 7 7 8 9 9 9 9 9 9 9 10 11 11 10 10 10 10 10 10 10 10 9 9 9 9 9 9 9 9 8 7 5 4 4 5 4 4 3 3 3 3 2 1 1 2 2 2 2 2 3 3 3
15 15 14 14 15 15 13 12 14 14 12 11 11 11 10 9 9 9 9 10 10 10 10 10 10 9 10 10 11 11 10 9 9 9 9 9 9 9 9 9 8 8 8 8 8 8 8 7 5 4 4 4 4 4 4 4 4 3 3 2 2 2 3 3 3 3 3 3 3
15 15 15 15 15 15 13 12 13 13 12 11 12 13 13 12 12 12 12 11 10 10 10 10 10 10 11 11 11 11 10 9 9 9 9 9 9 10 10 9 9 8 8 8 8 7 7 6 4 4 4 4 3 4 4 4 4 4 4 3 3 3 3 4 3 3 4 5 5
15 16 16 16 16 16 15 14 13 12 12 11 13 14 15 14 14 14 13 11 10 10 10 10 11 12 13 13 13 13 12 11 10 10 10 10 11 11 11 10 10 9 9 8 8 7 6 5 4 4 4 3 3 4 4 5 5 5 5 5 4 3 3 3 4 4 5 6 6
14 15 15 15 16 16 16 15 14 13 13 12 14 14 14 14 14 13 12 11 10 10 11 10 12 13 14 14 14 14 13 13 12 12 12 12 13 12 12 11 11 10 10 9 9 8 7 5 4 4 4 3 4 4 5 6 6 6 6 5 4 4 3 3 4 5 5 6 6
15 15 15 15 16 16 16 15 14 14 14 13 13 13 13 13 13 12 12 10 10 10 11 11 12 13 14 15 14 14 13 12 12 13 13 13 13 13 13 11 12 12 11 10 10 10 9 7 6 5 4 4 4 5 6 6 7 7 6 4 4 4 4 4 5 5 6 6 6
16 15 15 15 16 16 16 15 14 13 13 13 13 13 12 12 12 11 11 10 10 11 12 12 13 13 13 13 13 13 12 11 12 12 13 13 13 13 13 12 13 13 13 12 11 10 9 8 8 8 7 5 6 6 6 7 7 7 6 4 5 5 5 5 5 5 5 4 4
16 16 15 15 16 16 16 15 14 13 13 13 13 13 12 12 12 12 11 10 11 12 12 12 13 13 12 11 11 11 11 11 12 12 13 13 13 13 13 13 13 13 13 13 12 10 10 10 10 10 10 8 6 6 6 7 7 7 6 5 5 5 6 5 5 4 3 3 3
17 16 16 16 16 17 17 16 14 13 13 13 13 13 12 12 12 12 12 12 12 12 11 11 12 12 11 10 9 9 9 10 11 12 12 13 13 13 13 13 13 13 13 13 11 11 10 11 12 12 11 10 8 7 7 8 8 7 7 6 6 6 6 6 4 3 2 2 1
17 17 16 16 17 17 16 16 14 13 13 14 13 12 12 11 11 12 12 12 11 11 10 10 10 10 10 9 8 8 9 10 11 12 12 13 12 13 13 13 13 13 12 12 11 12 12 12 12 12 12 12 10 8 8 8 8 8 8 7 7 7 6 6 5 4 3 2 2
18 17 17 16 17 16 16 16 13 13 13 13 13 12 11 10 10 10 10 11 10 10 9 9 8 8 9 9 9 9 10 10 12 12 13 13 13 13 13 12 13 13 12 12 11 12 13 13 13 12 12 12 11 10 9 9 9 9 8 8 8 7 7 6 6 5 3 3 3
18 18 17 17 17 16 16 15 13 12 12 12 12 11 10 9 9 9 9 10 9 8 8 9 8 8 8 9 9 9 10 11 12 13 14 14 14 14 13 13 13 13 13 13 12 12 12 12 12 12 12 12 12 11 10 9 9 9 8 8 8 8 8 7 7 6 5 4 5
19 19 18 17 17 17 16 15 13 12 12 12 12 11 10 9 8 8 9 9 8 8 8 9 9 8 8 8 8 8 9 11 13 13 13 14 14 15 15 14 14 14 14 14 13 13 12 11 11 11 11 12 11 11 10 10 9 9 9 8 8 8 8 8 8 7 7 6 7
20 19 19 18 18 17 17 16 14 13 12 12 12 11 10 10 10 9 8 8 9 9 10 10 10 9 9 8 7 7 9 12 13 14 14 14 15 15 15 15 14 14 14 14 14 13 13 12 11 10 10 11 11 10 10 10 9 9 9 9 9 9 9 9 9 8 8 8 8
20 19 19 18 18 17 17 16 15 14 13 12 12 11 11 12 12 11 9 9 9 10 11 11 11 10 10 10 8 7 8 12 14 14 14 14 14 14 14 14 14 14 14 14 14 13 13 12 11 10 10 10 10 10 10 10 10 10 10 10 10 10 10 10 10 9 8 8 8
20 20 19 18 18 17 17 16 15 14 13 13 13 13 13 14 14 13 12 10 10 10 11 12 12 11 10 10 8 8 8 10 13 14 14 14 14 14 14 14 13 13 13 13 13 13 13 12 11 10 10 9 10 10 10 10 10 10 10 10 10 11 11 10 10 9 8 8 8
20 20 19 18 17 17 16 16 15 14 14 14 14 14 14 14 15 14 14 12 10 9 9 11 12 12 11 10 9 8 8 8 11 13 14 13 14 14 14 13 13 13 12 12 12 13 12 12 11 10 9 9 9 10 10 10 10 10 10 9 9 9 9 9 9 8 8 8 8
20 19 18 17 17 16 16 16 15 14 14 15 15 15 14 14 14 14 14 12 10 9 8 10 11 12 11 10 10 10 9 8 10 12 13 13 13 13 13 12 13 13 13 13 13 13 12 12 11 10 9 8 9 10 11 10 10 10 9 8 8 8 7 7 7 8 8 8 8
18 17 16 16 16 16 16 16 16 15 14 15 15 15 14 13 13 14 14 13 11 9 8 8 10 11 11 11 11 12 11 10 10 11 11 12 12 12 12 11 12 13 13 13 12 12 12 11 11 10 9 9 10 10 11 10 10 9 9 8 8 7 7 7 7 7 7 8 8
13 12 13 14 15 16 16 16 16 15 15 15 15 14 14 13 13 13 14 14 12 11 10 9 9 10 11 12 13 13 13 12 12 12 11 11 11 11 12 11 12 12 12 10 10 11 11 10 10 9 9 9 9 10 10 10 9 9 9 9 8 7 7 7 7 7 7 7 8
7 8 10 13 15 16 16 16 16 16 15 15 14 14 14 13 13 13 14 14 13 12 11 10 10 10 10 11 13 13 14 14 13 12 11 11 10 10 11 10 10 10 9 8 10 12 12 10 9 9 8 8 8 8 8 9 9 9 9 9 9 8 8 7 7 7 7 8 8
3 5 8 11 14 16 17 17 17 16 15 14 14 14 14 14 13 13 14 14 13 12 11 10 10 9 10 11 12 12 13 12 12 11 11 10 10 9 9 9 8 8 7 8 11 13 14 13 12 10 10 9 9 8 8 7 8 9 9 9 9 8 8 7 7 7 7 7 8
2 6 9 10 11 15 17 17 16 16 15 14 14 14 14 13 13 13 14 14 13 12 10 9 9 9 9 10 11 12 12 10 10 10 10 9 9 9 9 8 8 7 7 9 12 14 15 15 15 14 12 10 10 9 8 7 8 9 9 9 8 8 8 8 8 7 7 7 7
5 9 10 8 8 10 13 15 16 15 15 14 14 14 14 13 13 13 13 13 12 11 9 8 8 8 8 8 10 11 11 10 9 9 9 9 9 9 8 7 6 6 8 10 13 15 17 17 18 17 15 12 10 9 9 8 8 8 7 7 7 7 7 7 7 6 6 7 7
9 10 10 7 5 5 7 11 14 15 15 14 14 14 13 13 13 13 13 13 12 11 9 7 6 6 7 8 9 10 11 11 10 9 8 8 8 7 6 5 5 6 8 12 14 16 17 18 19 19 17 14 9 7 7 7 7 7 7 6 6 7 7 6 6 6 6 6 6
11 10 8 5 4 3 3 5 9 12 13 13 13 13 13 13 13 13 13 13 12 11 9 8 7 8 9 9 9 10 10 10 9 8 8 8 7 6 5 5 5 6 9 13 15 16 17 18 19 19 18 16 11 8 7 6 6 6 6 6 6 6 6 6 6 6 6 6 7
10 8 6 5 4 3 2 1 2 5 9 11 13 13 13 13 13 12 12 12 10 9 8 9 9 10 10 10 9 9 9 8 8 8 8 8 7 6 6 6 6 7 9 12 14 16 16 17 18 18 18 17 12 9 7 7 6 6 6 6 6 6 6 6 7 7 7 8 8
9 7 6 6 6 5 3 2 3 5 8 11 12 13 13 13 12 11 11 10 10 9 9 9 10 10 9 9 8 8 8 8 8 8 8 8 7 7 6 7 7 8 9 12 14 14 14 14 15 16 17 16 11 9 8 7 6 5 5 6 6 7 7 6 7 8 9 9 9
10 9 8 7 6 5 4 5 6 7 9 11 13 13 13 12 10 10 10 10 10 10 10 10 10 10 9 8 7 8 8 8 8 8 8 8 8 8 8 7 7 8 10 12 12 12 12 11 11 12 13 12 9 8 7 6 5 4 4 5 6 7 8 8 8 8 9 10 10
12 11 10 9 8 6 5 4 5 7 8 10 11 12 12 11 10 9 9 8 8 8 8 8 8 7 7 7 7 7 7 6 6 6 7 7 9 9 8 7 6 7 10 12 12 12 11 10 10 10 10 8 6 5 5 5 4 4 4 5 6 7 8 9 9 10 10 10 10
12 13 12 11 9 8 6 4 4 5 6 7 8 9 9 9 9 9 8 7 6 6 6 6 6 6 6 6 6 7 7 7 7 7 7 8 9 9 9 8 7 9 11 12 12 11 11 10 10 9 8 6 4 4 4 4 4 5 6 7 7 8 9 9 10 10 10 10 10
13 14 14 12 10 8 7 5 6 7 7 8 9 9 9 8 8 7 7 7 7 7 7 7 6 6 6 7 7 7 8 9 8 8 8 8 9 9 10 9 8 9 11 12 12 12 12 11 11 10 9 6 4 4 4 5 5 6 7 8 9 9 10 10 10 10 9 9 10
14 15 15 13 11 9 8 8 10 12 12 12 12 12 11 10 8 7 7 7 8 8 8 8 8 8 7 7 7 7 8 9 9 9 8 8 9 9 9 9 8 9 11 12 13 13 13 13 13 12 10 6 5 5 5 5 5 6 7 9 9 10 10 9 9 9 9 9 9
15 15 15 14 13 12 12 12 13 14 14 14 13 12 11 10 8 7 7 7 9 9 9 8 8 8 9 9 9 9 9 9 9 9 8 8 8 8 8 8 8 8 9 12 13 13 13 13 13 12 10 7 6 5 5 5 5 6 7 8 9 9 9 7 7 7 7 9 9
15 15 15 15 15 14 14 14 14 14 14 14 13 12 11 9 7 6 6 7 9 9 9 9 9 9 9 10 10 9 9 9 9 9 8 7 7 7 7 7 6 7 8 11 13 13 13 13 13 13 11 7 6 5 5 5 6 6 7 7 7 7 7 6 5 6 7 8 10
15 15 16 15 15 15 15 14 13 13 13 13 13 11 10 8 7 7 7 7 8 8 9 9 9 9 9 10 10 9 9 8 8 8 8 7 7 7 7 6 6 6 7 10 11 12 12 13 13 13 11 7 6 5 4 4 5 6 6 6 6 6 5 5 5 6 6 8 9
15 15 15 15 15 15 15 14 13 12 12 12 12 10 8 7 7 7 7 7 7 7 8 8 9 10 9 9 9 9 9 7 7 7 7 8 7 7 6 5 5 5 6 8 10 11 11 12 12 13 11 7 6 5 4 4 4 5 6 6 5 5 5 5 5 6 6 7 7
Wind_Direction
174 172 169 168 168 169 171 174 173 174 175 176 177 176 176 177 177 179 182 182 184 186 187 187 185 183 181 180 179 178 176 171 166 162 161 162 163 163 162 159 157 155 154 154 151 150 149 148 148 152 158 159 162 169 174 171 162 160 161 163 165 161 156 153 153 151 148 144 142
177 174 170 168 169 170 171 173 174 175 177 180 180 178 177 178 178 180 183 185 187 186 185 186 184 182 181 181 180 178 176 173 169 165 163 164 165 165 164 162 160 159 157 156 155 154 153 151 150 153 158 157 158 166 176 178 158 157 162 172 175 168 159 156 155 151 147 144 139
178 175 172 171 171 172 173 175 177 179 180 182 181 180 179 181 180 182 184 186 185 184 183 185 184 182 181 181 181 180 178 176 171 168 166 167 167 167 166 164 162 161 160 159 158 157 156 153 152 154 157 158 159 167 174 178 156 153 162 178 178 170 162 162 158 150 145 142 139
181 178 175 174 175 176 177 178 179 180 180 182 181 181 180 182 181 182 183 183 182 183 184 185 183 182 181 181 181 181 180 177 172 169 167 167 168 167 166 164 163 163 162 160 160 158 156 153 152 154 155 156 160 165 172 171 157 156 162 175 163 160 164 171 164 155 149 146 146
184 182 179 178 178 179 179 179 179 180 180 181 181 181 182 183 181 180 180 180 184 186 186 182 181 180 179 179 179 179 179 176 173 169 167 165 166 166 165 164 165 165 164 162 161 158 156 153 153 154 156 157 161 166 168 163 158 160 163 164 162 162 164 168 171 167 161 156 156
186 184 182 180 180 180 181 181 179 179 180 181 181 182 182 183 181 181 182 184 186 184 181 178 178 176 175 175 177 177 176 174 172 167 164 161 162 163 163 165 167 167 166 164 161 158 155 152 153 155 157 157 163 166 164 156 158 161 166 172 177 171 166 171 175 173 167 162 162
187 185 183 182 181 182 182 182 180 180 180 181 183 184 184 184 182 183 183 183 181 178 177 177 177 175 174 174 175 175 174 172 168 164 160 160 162 164 165 167 167 167 166 165 162 159 155 152 153 155 157 158 164 168 166 160 162 166 172 179 184 177 170 174 174 170 165 164 166
188 186 184 182 182 183 183 182 180 180 182 184 186 186 186 185 183 181 180 178 177 178 179 179 179 177 175 175 175 175 173 170 167 164 162 161 164 166 167 166 166 166 166 165 162 159 156 151 152 155 159 163 170 174 173 167 168 172 177 182 185 182 176 172 170 168 168 169 172
190 188 185 182 183 184 184 183 181 181 184 188 188 187 186 184 181 178 178 178 179 179 180 181 180 178 176 176 176 176 174 171 168 166 165 164 167 168 168 166 165 165 165 164 162 159 156 152 154 158 163 169 176 181 181 175 175 178 182 183 184 182 177 170 169 170 173 175 179
191 189 186 182 184 184 185 184 183 184 186 188 187 186 183 181 179 178 178 179 177 178 180 182 180 178 177 178 177 176 175 173 170 168 167 167 169 169 169 168 166 165 165 165 163 161 158 156 160 164 168 173 180 185 187 183 181 183 185 186 182 179 176 174 174 175 177 179 183
192 190 187 183 184 184 184 185 185 186 187 188 186 184 182 180 179 178 178 176 174 178 182 181 178 178 178 179 177 176 174 174 172 170 169 170 171 172 171 170 169 168 167 167 166 164 163 164 166 168 170 175 180 185 189 189 187 186 187 187 180 176 176 179 180 179 177 176 183
192 191 189 185 183 183 184 186 186 187 188 188 186 183 182 182 179 177 175 173 174 179 182 179 177 177 177 176 174 172 172 174 173 172 171 172 173 174 174 173 171 170 170 169 168 168 169 170 169 169 170 174 180 185 190 191 190 188 187 185 181 178 179 182 177 169 160 160 183
192 192 190 186 183 183 185 187 188 188 188 189 187 185 183 182 178 175 173 173 175 177 179 177 176 174 172 169 167 169 172 175 174 173 173 174 176 176 176 175 174 173 172 171 172 173 174 174 171 169 169 172 178 184 188 189 189 188 186 183 182 182 179 174 156 136 122 135 197
192 192 191 186 183 183 185 189 189 189 189 189 188 186 183 180 176 174 173 173 173 173 173 173 172 170 167 164 167 170 173 175 175 174 175 178 179 179 178 178 176 175 174 175 176 177 178 177 174 170 169 171 176 181 184 186 188 187 185 182 182 179 172 156 136 124 123 151 215
192 193 192 188 184 184 186 189 190 190 189 189 188 184 180 177 173 172 171 170 170 169 168 168 168 165 162 161 165 169 172 176 177 178 179 180 181 182 181 180 179 178 177 178 179 181 181 180 178 174 171 170 174 178 181 184 186 185 183 179 176 168 158 145 138 139 149 179 215
193 193 192 189 186 185 187 189 190 190 188 188 186 182 177 172 168 167 166 165 166 165 164 165 164 161 159 160 163 166 171 177 181 182 182 182 183 183 184 183 182 181 180 179 181 184 184 183 180 176 173 171 173 176 179 182 184 183 178 171 164 157 152 150 151 156 169 191 214
193 193 193 191 188 187 187 188 189 189 186 185 181 177 172 166 161 160 162 162 163 164 164 164 162 160 159 161 162 166 172 179 183 185 185 184 184 185 186 186 185 184 182 180 182 185 186 186 182 178 174 171 173 175 178 180 181 178 172 162 156 154 156 159 161 167 178 197 215
194 193 193 192 189 188 187 187 187 185 182 179 177 173 168 161 157 158 161 163 165 165 166 164 162 162 163 167 167 168 172 179 183 185 187 186 186 187 188 188 187 185 184 182 183 185 187 187 185 180 175 172 174 175 176 176 176 172 166 157 156 159 164 168 167 171 182 200 215
194 193 193 193 190 187 185 184 184 181 178 175 173 170 166 160 158 160 165 169 170 170 169 166 165 165 168 171 171 170 173 179 183 185 187 187 187 188 189 189 188 187 186 184 184 185 186 186 185 183 179 175 174 173 172 172 172 168 164 159 162 167 172 173 171 175 185 201 215
193 193 193 193 189 186 183 181 181 178 175 172 171 169 167 164 162 165 170 176 175 173 171 168 166 167 170 172 172 174 177 182 183 185 187 188 188 189 189 189 189 188 187 186 185 185 185 185 186 185 183 177 174 171 169 168 169 167 164 164 169 174 176 175 174 177 187 203 217
192 192 192 191 187 183 180 179 178 176 173 171 170 170 169 168 168 171 174 176 174 174 173 170 167 166 168 171 174 178 181 183 185 186 187 189 189 189 189 189 188 188 188 188 187 185 185 185 186 186 184 177 173 170 168 168 167 166 166 168 173 177 179 176 175 180 190 206 218
191 190 189 188 185 181 178 176 175 174 172 171 171 171 172 171 172 173 173 172 173 175 176 171 166 165 167 172 177 179 180 182 186 188 189 190 190 190 189 187 187 188 189 190 188 186 185 184 185 184 181 176 174 172 170 168 167 165 166 170 174 179 182 180 181 186 196 208 220
188 187 186 186 183 179 175 174 174 173 172 171 171 172 173 174 173 171 169 170 173 177 178 171 167 167 171 175 179 179 178 180 187 190 191 191 191 189 188 187 188 190 191 191 188 185 183 182 183 181 178 174 173 171 169 168 166 166 167 171 176 182 188 191 192 196 202 212 222
188 188 188 186 182 177 174 173 173 173 172 172 172 173 174 174 171 168 168 170 173 176 176 172 169 170 173 176 179 179 180 181 187 190 193 193 191 189 188 188 190 191 192 191 186 182 180 179 180 178 174 170 169 168 167 166 165 166 168 173 180 188 195 199 202 205 209 216 225
185 196 197 188 181 177 174 172 173 173 173 172 171 172 173 173 170 168 168 171 173 175 174 172 170 170 172 175 178 180 182 184 187 190 192 194 193 191 189 189 190 191 190 188 181 177 174 173 173 171 168 164 164 164 163 162 164 168 172 178 185 191 198 205 209 213 217 222 229
185 226 224 200 183 176 173 173 173 173 173 171 170 171 172 172 169 167 167 170 172 173 174 172 170 170 171 174 177 180 184 187 188 189 191 194 194 193 191 190 190 189 187 183 176 172 170 168 165 163 161 161 160 159 159 162 167 172 177 182 188 193 200 207 214 219 223 228 234
222 243 240 221 190 177 173 172 172 172 171 171 170 170 171 170 168 165 165 168 170 172 172 173 170 168 169 173 176 180 184 186 186 187 188 192 194 195 194 192 188 185 180 176 170 167 165 163 161 159 158 160 161 161 161 164 169 175 181 186 191 196 201 209 216 221 227 233 238
238 237 233 226 204 185 175 170 169 170 171 170 169 168 168 168 166 164 164 166 167 169 171 174 170 166 167 172 176 179 180 181 182 183 186 190 194 194 194 191 184 175 169 166 164 163 163 161 159 157 156 158 162 163 163 164 170 176 183 189 194 200 205 211 218 224 230 237 243
233 233 230 224 221 205 185 171 169 169 169 169 167 166 166 167 166 164 163 164 165 167 170 173 168 164 166 173 175 176 176 177 179 181 184 188 191 190 187 179 167 159 157 158 160 161 161 160 158 156 155 156 160 163 164 166 172 178 185 192 197 203 208 214 221 228 234 240 246
223 226 223 211 211 215 207 183 172 169 169 167 165 164 165 167 166 165 163 163 165 167 169 168 165 167 170 173 172 173 175 177 177 178 179 181 182 179 169 154 143 141 146 151 155 157 158 158 157 155 153 155 156 159 164 167 172 179 185 193 199 205 211 218 224 230 235 241 247
211 211 202 177 168 170 180 202 200 184 176 169 166 165 166 167 167 166 165 164 164 164 163 162 165 168 170 169 167 169 172 173 172 172 173 174 171 161 147 133 128 130 138 145 148 151 154 157 156 154 152 152 154 158 163 167 172 179 185 193 200 206 212 220 226 231 235 240 246
189 181 164 147 143 146 162 199 235 222 200 177 169 166 166 167 167 165 162 159 156 156 157 161 165 166 165 161 160 161 163 163 165 168 169 167 159 146 130 121 121 125 132 138 140 143 148 152 152 151 149 149 151 155 159 162 169 177 186 195 203 209 215 220 227 232 235 238 243
167 158 149 142 144 153 173 191 208 211 203 184 173 168 165 164 161 158 154 151 150 153 156 161 162 160 157 154 151 151 153 155 158 159 157 152 141 129 119 112 116 122 127 130 130 132 135 138 139 139 139 140 142 147 151 154 164 177 191 202 210 215 220 224 229 233 236 238 241
156 148 140 135 135 140 153 172 187 194 191 181 169 162 157 154 150 148 146 145 146 149 152 153 150 147 142 139 137 137 137 135 133 130 129 128 124 119 114 109 115 123 126 126 123 122 122 122 123 124 125 126 129 136 144 153 169 188 203 213 219 222 225 228 231 234 237 240 243
142 132 124 117 117 119 124 134 151 160 159 154 143 137 134 133 133 134 134 133 133 133 131 127 122 117 113 111 113 115 114 110 105 104 104 108 110 108 106 106 115 125 130 128 126 125 125 125 126 126 127 127 134 145 158 172 191 205 214 221 226 229 230 232 235 238 240 243 246
123 116 111 107 106 107 109 111 111 110 108 108 106 104 104 106 110 113 117 118 117 116 113 108 104 102 100 99 99 101 103 104 99 96 94 97 100 103 105 109 121 132 138 138 137 138 139 141 142 143 144 147 160 174 186 195 208 217 223 228 232 234 235 237 239 242 245 247 250
111 108 106 105 105 105 105 104 100 98 96 95 95 95 95 95 96 98 103 108 110 110 109 106 105 105 106 105 103 102 103 104 102 100 98 98 101 105 110 116 129 141 148 150 150 152 154 156 157 157 158 163 177 189 198 207 217 224 229 233 237 238 239 241 243 247 250 253 256
107 107 107 107 106 103 101 99 98 99 98 98 97 97 97 98 97 97 100 105 110 110 109 107 108 110 111 110 109 108 108 109 109 109 109 109 111 114 118 124 137 149 157 161 161 162 165 166 167 167 168 174 184 193 201 210 220 227 232 236 239 241 243 244 248 252 255 258 260
107 108 109 109 106 104 101 99 100 102 104 103 102 102 102 102 102 102 102 105 110 112 113 113 115 116 116 114 114 114 115 116 118 120 121 123 125 126 129 133 141 151 161 167 168 169 170 173 174 174 175 180 188 195 202 211 221 228 234 239 244 247 248 250 253 257 261 263 263
107 108 108 108 107 105 104 104 106 108 109 109 108 108 107 107 107 106 106 105 109 113 116 119 122 122 121 119 119 121 122 123 124 126 128 130 131 131 132 136 139 146 157 168 170 172 174 176 179 180 181 185 191 197 203 212 223 232 237 243 248 252 256 257 258 261 263 265 264
106 107 107 106 107 107 108 109 111 111 112 112 113 113 113 112 111 111 111 112 114 117 121 124 127 127 125 124 124 125 126 126 127 128 128 128 129 130 131 132 133 138 151 166 171 173 176 179 182 184 185 189 193 197 203 211 225 234 240 244 248 253 259 263 263 264 265 266 266